Andover, NJ

10:49 AM EDT on March 29, 2017 (GMT -0400)
Andover

Weather History for K12N - January, 2013

Change the Weather History Date:

Saturday, January 5, 2013

  Actual Average (KFWN) Record (KFWN)
Temperature  
Mean Temperature 32 °F -  
Max Temperature 41 °F 36 °F 62 °F (1950)
Min Temperature 24 °F 15 °F -16 °F (1981)
Degree Days  
Heating Degree Days 32    
Moisture  
Dew Point 19 °F    
Average Humidity 62    
Maximum Humidity 88    
Minimum Humidity 41    
Precipitation  
Precipitation 0.02 in - - ()
Sea Level Pressure  
Sea Level Pressure 30.22 in    
Wind  
Wind Speed 2 mph (NW)    
Max Wind Speed 9 mph    
Max Gust Speed 20 mph    
Averages and records for this station are not official NWS values.
T = Trace of Precipitation, MM = Missing Value Source: NWS Daily Summary

Daily Weather History Graph

Daily Weather History Graph

Search for Another Location

Airport or City:

Trip Planner

Search our weather history database for the weather conditions in past years. The results will help you decide how hot, cold, wet, or windy it might be!

Date:

Astronomy

Jan. 05, 2013 Rise Set
Actual Time 7:24 AM EST 4:45 PM EST
Civil Twilight 6:53 AM EST 5:16 PM EST
Nautical Twilight 6:18 AM EST 5:50 PM EST
Astronomical Twilight 5:45 AM EST 6:23 PM EST
Moon 12:26 AM EST (1/5) 11:35 AM EST (1/5)
Length of Visible Light 10h 22m
Length of Day
9h 21m
Last Quarter, 44% of the Moon is Illuminated
Jan 5
Last Quarter
Jan 11
New
Jan 18
First Quarter
Jan 26
Full
Feb 3
Last Quarter

Hourly Weather History & Observations

Time (EST) Temp. Windchill Dew Point Humidity Pressure Visibility Wind Dir Wind Speed Gust Speed Precip Events Conditions
12:54 AM 30.9 °F 27.5 °F 16.0 °F 54% 30.05 in - Variable 3.5 mph - N/A   Unknown
1:54 AM 30.0 °F - 16.0 °F 56% 30.08 in - Calm Calm - N/A   Unknown
2:54 AM 30.0 °F - 16.0 °F 56% 30.11 in - Calm Calm - N/A   Unknown
3:54 AM 30.0 °F - 16.0 °F 56% 30.12 in - Calm Calm - N/A   Unknown
4:54 AM 30.9 °F 26.2 °F 17.1 °F 57% 30.14 in - Variable 4.6 mph - N/A   Unknown
5:54 AM 30.9 °F 27.5 °F 18.0 °F 59% 30.17 in - Variable 3.5 mph - N/A   Unknown
6:54 AM 30.9 °F 26.2 °F 18.0 °F 59% 30.21 in - SSW 4.6 mph - N/A   Unknown
7:54 AM 30.9 °F - 18.0 °F 59% 30.25 in - Calm Calm - N/A   Unknown
8:54 AM 34.0 °F - 19.9 °F 56% 30.25 in - Calm Calm - N/A   Unknown
9:54 AM 35.1 °F - 19.9 °F 54% 30.29 in - Calm Calm - N/A   Unknown
10:54 AM 37.9 °F 32.7 °F 19.9 °F 48% 30.31 in - Variable 6.9 mph 19.6 mph N/A   Unknown
11:54 AM 39.0 °F 32.8 °F 19.9 °F 46% 30.28 in - North 9.2 mph 18.4 mph N/A   Unknown
12:54 PM 39.9 °F 34.5 °F 19.9 °F 45% 30.25 in - North 8.1 mph 18.4 mph N/A   Unknown
1:54 PM 41.0 °F - 19.9 °F 43% 30.24 in - Calm Calm - N/A   Unknown
2:54 PM 41.0 °F 39.0 °F 19.0 °F 41% 30.26 in - Variable 3.5 mph - N/A   Unknown
3:54 PM 39.0 °F 36.8 °F 19.0 °F 45% 30.25 in - WNW 3.5 mph - N/A   Unknown
4:54 PM 32.0 °F - 21.9 °F 66% 30.26 in - Calm Calm - N/A   Unknown
5:54 PM 28.9 °F - 23.0 °F 78% 30.28 in - Calm Calm - N/A   Unknown
6:54 PM 27.0 °F - 21.9 °F 81% 30.29 in - Calm Calm - N/A   Unknown
7:54 PM 24.1 °F - 19.9 °F 84% 30.26 in - Calm Calm - 0.02 in   Unknown
8:54 PM 24.1 °F - 19.9 °F 84% 30.26 in - Calm Calm - N/A   Unknown
9:54 PM 24.1 °F - 21.0 °F 88% 30.25 in - Calm Calm - N/A   Unknown
10:54 PM 26.1 °F - 21.9 °F 84% 30.24 in - Calm Calm - N/A   Unknown
11:54 PM 27.0 °F - 23.0 °F 85% 30.22 in - Calm Calm - N/A   Unknown